Regional Weather Roundup
Issued by NWS

Home | Current Version | Previous Version | Graphics & Text | Print | Product List | Glossary On
Versions: 1 2 3 4 5 6 7 8 9 10 11 12 13 14 15 16 17 18 19 20 21 22 23 24 25 26 27 28 29 30 31 32 33 34 35 36 37 38 39 40 41 42 43 44 45 46 47 48 49 50
000
ASUS43 KDMX 250307
RWRIA

WEATHER ROUNDUP FOR IOWA
NATIONAL WEATHER SERVICE DES MOINES IA
1000 PM CDT THU JUL 24 2014

NOTE: "FAIR" INDICATES FEW OR NO CLOUDS BELOW 12,000 FEET WITH NO
SIGNIFICANT WEATHER AND/OR OBSTRUCTIONS TO VISIBILITY.

* - THESE STATIONS ARE NOT NWS STATIONS...THUS NOT UNDER NWS
QUALITY CONTROL.  THEY ALSO DO NOT REPORT WEATHER SUCH
AS PRECIPITATION OR FOG.

IAZ001>003-012>014-020>022-031>034-043>046-250400-
   NORTHWEST IOWA

CITY           SKY/WX    TMP DP  RH WIND       PRES   REMARKS
CARROLL *      CLOUDY    70  61  73 S15G24    29.89R
CHEROKEE *     PTCLDY    68  63  83 S13G20    29.88S
DENISON *      CLEAR     70  63  78 S13G24    29.88S
LE MARS *      CLEAR     72  63  73 S12G21    29.85F
ORANGE CITY *  CLEAR     70  61  73 S12       29.86F
SHELDON *      CLEAR     66  63  88 SE8       29.86F
SIOUX CITY     PTCLDY    74  61  63 S15G29    29.84F
SPENCER        CLEAR     64  60  87 SE6       29.91R
STORM LAKE *   CLEAR     66  63  88 S14       29.91R
$$

IAZ055>058-069>071-079>083-090>094-250400-
   SOUTHWEST IOWA

CITY           SKY/WX    TMP DP  RH WIND       PRES   REMARKS
ATLANTIC *     PTCLDY    70  63  78 S10G17    29.92F
AUDUBON *      CLEAR     72  64  78 S14G21    29.92S
CLARINDA *     CLEAR     72  63  73 S7G14     29.99S
COUNCIL BLFS *   N/A     72  63  73 SE20G25   29.91F
CRESTON *      CLEAR     68  61  77 S13       29.96F
HARLAN  *      CLEAR     72  61  68 S13G21    29.95F
LAMONI         PTCLDY    69  61  75 S10       29.98F
RED OAK *      CLEAR     72  61  68 S12       29.96F
SHENANDOAH *   CLEAR     72  61  68 SE12      29.96F
$$

IAZ047>049-059>061-072>074-084-250400-
   CENTRAL IOWA

CITY           SKY/WX    TMP DP  RH WIND       PRES   REMARKS
AMES           PTCLDY    66  60  81 E6        29.93R
ANKENY *       CLEAR     72  61  68 S16G23    29.90R
CHARITON *     PTCLDY    70  61  73 S16G24    29.94R
DES MOINES     MOCLDY    72  60  66 S13G22    29.90R
GRINNELL*      PTCLDY    68  59  73 SE6       29.97R
KNOXVILLE *    CLEAR     70  59  68 S13G23    29.90R
MARSHALLTOWN   CLEAR     64  62  93 E5        29.95R
PELLA *        PTCLDY    70  61  73 S7        29.94R
PERRY *          N/A     68  63  83 S13       29.90R
$$

IAZ004>006-015-016-023>025-035-036-250400-
   NORTH CENTRAL IOWA

CITY           SKY/WX    TMP DP  RH WIND       PRES   REMARKS
ALGONA *       CLEAR     63  61  94 SE6       29.93R
CLARION *      CLEAR     63  63 100 SE6       29.94R
ESTHERVILLE    CLEAR     59  57  93 S7        29.92R
FORT DODGE *   PTCLDY    66  61  82 S6        29.93R
MASON CITY     CLEAR     62  61  96 S6        29.96R
FOREST CITY *  CLEAR     61  61 100 SE5       29.94R
IOWA FALLS *     N/A     63  61  94 SE3       29.96R
$$

IAZ007>011-017>019-026>030-037>042-050>054-066-250400-
   NORTHEAST IOWA

CITY           SKY/WX    TMP DP  RH WIND       PRES   REMARKS
CEDAR RAPIDS   MOCLDY    68  58  70 S7        29.97S
CHARLES CITY * CLEAR     64  61  88 S5        29.97R
CLINTON *      CLOUDY    68  57  68 SE12      30.03F
DECORAH *      PTCLDY    66  59  77 SE3       29.97R
DUBUQUE        MOCLDY    65  60  84 S12       30.00F
MONTICELLO *   CLEAR     66  61  82 SE5       29.98F
OELWEIN *      CLEAR     66  61  82 S8        29.97R
WATERLOO       CLEAR     69  60  73 S14       29.94R
$$

IAZ064-065-067-068-078-250400-
   EAST CENTRAL IOWA

CITY           SKY/WX    TMP DP  RH WIND       PRES   REMARKS
DAVENPORT      CLOUDY    67  56  67 SE7       30.01F
IOWA CITY      MOCLDY    67  60  78 S7        30.00R
MT. PLEASANT * CLOUDY    68  59  73 CALM      30.02R
MUSCATINE *    CLEAR     68  61  77 S7        29.99S
QUAD CITIES    CLOUDY    67  57  70 SE6       30.01F
$$

IAZ062-063-075>077-085>089-095>099-250400-
   SOUTHEAST IOWA

CITY           SKY/WX    TMP DP  RH WIND       PRES   REMARKS
BURLINGTON     MOCLDY    70  59  68 S8        29.99F
FAIRFIELD *    CLEAR     70  57  64 SE8       29.98R
FORT MADISON * CLEAR     72  61  68 SE10      29.96F
KEOKUK *       CLEAR     68  61  77 SE8       29.98F
OSKALOOSA *      N/A     68  59  73 SE9       29.96R
CENTERVILLE *  CLEAR     68  61  77 S12G17    29.97F
OTTUMWA        MOCLDY    69  58  67 SE10      29.94F
WASHINGTON *   CLEAR     66  59  77 SE7       30.00R
$$

ABBREVIATIONS USED IN REMARKS
   TC - TEMPERATURES IN CELSIUS
  WCI - WIND CHILL INDEX
   HX - HEAT INDEX
  VSB - VISIBILITY
$$




USA.gov is the U.S. government's official web portal to all federal, state and local government web resources and services.